Weather in Sobirtepa

Uzbekistan     40°23′39″N   70°29′15″E
temp.,
°C
wind,
m/s
gust,
m/s
humid.,
%
clouds,
%
prec.,
mm/h
press.,
hPa
HPBL,
m
20 april, tue
tue2023:00+21sse0126100 0.0 101111
02:00+20sw1128100 0.0 101011
05:00+18sw223599 0.0 101019
08:00+20sw113297 0.0 1012229
11:00+25wsw582497 0.0 10122565
14:00+26wsw8111799 0.0 10102823
17:00+25sw9102121 0.0 10082175
20:00+16wnw4763100 1.9 1013296
21 april, wed
wed2123:00+18ssw1154100 1.9 100991
02:00+17sw4956100 0.3 1011855
05:00+17sw91357100 0.5 1010748
08:00+16sw13147078 0.4 1012693
11:00+21wsw916324 0.4 10122346
14:00+18sw1516425 0.0 10141479
17:00+18wsw1313380 0.0 10151475
20:00+15wsw1214510 0.0 1018830
22 april, thu
thu2223:00+14wsw913540 0.0 1018540
02:00+13wsw58580 0.0 1020194
05:00+11w12610 0.0 102228
08:00+14sse12530 0.0 1024589
11:00+17sse22400 0.0 10241533
14:00+20sw32250 0.0 10231828
17:00+21sw43210 0.0 10231159
20:00+18sw36310 0.0 1023147
23 april, fri
fri2323:00+16sw47440 0.0 1023173
02:00+14ssw34470 0.0 102261
05:00+13ne23510 0.0 102338
08:00+16ne55415 0.0 1024445
11:00+21ne44260 0.0 10231355
14:00+24ne3217100 0.0 10202057
17:00+24ne2115100 0.0 10191558
20:00+21ne34194 0.0 101949
24 april, sat
sat2423:00+19ne11220 0.0 101911
02:00+17ne442515 0.0 101845
05:00+15ene4541100 0.0 101980
08:00+18ne5733100 0.0 1020487
11:00+24ene5620100 0.0 10191296
14:00+26ene3313100 0.0 10161821
17:00+27ene321279 0.0 10151640
20:00+23ne2216100 0.0 101617